Voltar ao catálogo

DELTA 1 DEB

AtivoSSO
NORAD 7160·DEBRIS·🇺🇸 United States

Lançado Nov 6, 1973 de Vandenberg Space Force Base

Loading…

Próximas Passagens (próximas 24 horas)

TLE

AtualizadoSource: Space-Track

Época: Sep 14, 2026, 08:01 UTC

1 07160U 73086DY  26257.33466907  .00000145  00000-0  14979-2 0  9990
2 07160 102.1326 220.9709 0078003 189.2264 333.3156 12.35288099376793

Acompanhe DELTA 1 DEB em tempo real com AllMySat

Download on the App Store